KLM41F EHAM-LFMN

Flight info

Callsign KLM41F
Flight time 1h 48m
Altitude 35000
Route WOODY DCT NIK DCT DIK DCT SUTAL DCT GTQ DCT POGOL DCT LASAT DCT MOROK DCT GILIR DCT GEVEA DCT KOGAS DCT MEDAM DCT VEVAR
Aircraft B738/M-SDE2E3FGHIRWXY/LB1

Departure

Time 2026-05-05 14:51
Airport Amsterdam Airport Schiphol (EHAM)

Arrival

Time 2026-05-05 16:40
Airport Nice-Côte d'Azur Airport (LFMN)
Time Latitude Longitude Altitude Speed Heading
2026-05-05 14:11 52.30443 4.76322 3 ft 0 kts 239°
2026-05-05 14:37 52.30444 4.76323 3 ft 2 kts 239°
2026-05-05 14:37 52.30455 4.76352 3 ft 4 kts 226°
2026-05-05 14:38 52.30476 4.76376 4 ft 4 kts 190°
2026-05-05 14:38 52.30498 4.76373 3 ft 2 kts 148°
2026-05-05 14:38 52.30503 4.76368 3 ft 1 kts 148°
2026-05-05 14:41 52.30486 4.76385 2 ft 6 kts 148°
2026-05-05 14:41 52.30443 4.76430 4 ft 8 kts 148°
2026-05-05 14:41 52.30389 4.76485 7 ft 9 kts 148°
2026-05-05 14:41 52.30336 4.76563 10 ft 12 kts 113°
2026-05-05 14:42 52.30372 4.76719 8 ft 18 kts 58°
2026-05-05 14:42 52.30451 4.76923 6 ft 24 kts 58°
2026-05-05 14:42 52.30545 4.77169 9 ft 26 kts 58°
2026-05-05 14:42 52.30646 4.77426 10 ft 26 kts 45°
2026-05-05 14:43 52.30753 4.77462 9 ft 14 kts
2026-05-05 14:43 52.30850 4.77469 11 ft 14 kts
2026-05-05 14:43 52.30946 4.77478 12 ft 16 kts
2026-05-05 14:43 52.31079 4.77490 9 ft 23 kts
2026-05-05 14:44 52.31240 4.77507 10 ft 24 kts 359°
2026-05-05 14:44 52.31381 4.77349 4 ft 28 kts 310°
2026-05-05 14:44 52.31485 4.77100 6 ft 26 kts 276°
2026-05-05 14:44 52.31478 4.76814 8 ft 24 kts 266°
2026-05-05 14:45 52.31468 4.76547 11 ft 23 kts 266°
2026-05-05 14:45 52.31460 4.76290 13 ft 23 kts 268°
2026-05-05 14:45 52.31451 4.76029 12 ft 24 kts 266°
2026-05-05 14:45 52.31441 4.75726 10 ft 29 kts 267°
2026-05-05 14:46 52.31430 4.75436 8 ft 23 kts 265°
2026-05-05 14:46 52.31421 4.75220 7 ft 19 kts 268°
2026-05-05 14:46 52.31413 4.74999 10 ft 21 kts 267°
2026-05-05 14:46 52.31406 4.74744 13 ft 24 kts 267°
2026-05-05 14:47 52.31397 4.74438 10 ft 28 kts 267°
2026-05-05 14:47 52.31292 4.74270 11 ft 24 kts 185°
2026-05-05 14:47 52.31127 4.74257 8 ft 23 kts 182°
2026-05-05 14:47 52.30969 4.74241 6 ft 23 kts 183°
2026-05-05 14:48 52.30810 4.74228 6 ft 23 kts 182°
2026-05-05 14:48 52.30654 4.74212 8 ft 22 kts 186°
2026-05-05 14:48 52.30499 4.74196 12 ft 22 kts 182°
2026-05-05 14:48 52.30353 4.74151 14 ft 21 kts 224°
2026-05-05 14:49 52.30359 4.74050 16 ft 5 kts 330°
2026-05-05 14:49 52.30413 4.74035 14 ft 10 kts 329°
2026-05-05 14:49 52.30417 4.73944 13 ft 11 kts 259°
2026-05-05 14:49 52.30413 4.73799 13 ft 14 kts 275°
2026-05-05 14:50 52.30468 4.73760 14 ft 5 kts
2026-05-05 14:51 52.30613 4.73772 13 ft 55 kts
2026-05-05 14:51 52.31220 4.73829 14 ft 119 kts
2026-05-05 14:51 52.32212 4.73929 201 ft 156 kts
2026-05-05 14:51 52.33292 4.74017 970 ft 154 kts 12°
2026-05-05 14:52 52.34312 4.74548 1749 ft 155 kts 23°
2026-05-05 14:52 52.35402 4.75276 2121 ft 186 kts 24°
2026-05-05 14:52 52.36619 4.76257 2448 ft 203 kts 40°
2026-05-05 14:52 52.37370 4.78211 3004 ft 212 kts 76°
2026-05-05 14:53 52.37288 4.80663 3673 ft 219 kts 100°
2026-05-05 14:53 52.37007 4.82269 4150 ft 227 kts 111°
2026-05-05 14:53 52.36006 4.84254 4896 ft 235 kts 147°
2026-05-05 14:53 52.34383 4.85077 5203 ft 261 kts 178°
2026-05-05 14:54 52.32512 4.85011 5772 ft 273 kts 181°
2026-05-05 14:54 52.30620 4.84932 6664 ft 273 kts 181°
2026-05-05 14:54 52.28733 4.84870 7417 ft 277 kts 181°
2026-05-05 14:54 52.26790 4.84819 8176 ft 281 kts 181°
2026-05-05 14:55 52.24156 4.84759 9226 ft 286 kts 181°
2026-05-05 14:55 52.22833 4.84730 9748 ft 288 kts 181°
2026-05-05 14:55 52.20814 4.84687 10325 ft 298 kts 181°
2026-05-05 14:55 52.18643 4.84641 10504 ft 322 kts 181°
2026-05-05 14:56 52.16329 4.84592 10683 ft 344 kts 181°
2026-05-05 14:56 52.13872 4.84542 11083 ft 357 kts 181°
2026-05-05 14:56 52.11366 4.84491 11707 ft 363 kts 181°
2026-05-05 14:56 52.08830 4.84440 12424 ft 366 kts 181°
2026-05-05 14:57 52.06272 4.84387 13105 ft 370 kts 181°
2026-05-05 14:57 52.03687 4.84332 13773 ft 374 kts 181°
2026-05-05 14:57 52.01121 4.83681 14374 ft 377 kts 201°
2026-05-05 14:57 51.98768 4.81824 15104 ft 376 kts 207°
2026-05-05 14:58 51.96432 4.79905 15757 ft 378 kts 206°
2026-05-05 14:58 51.94057 4.78015 16377 ft 381 kts 205°
2026-05-05 14:58 51.91653 4.76129 16903 ft 387 kts 205°
2026-05-05 14:58 51.89224 4.74230 17571 ft 388 kts 205°
2026-05-05 14:59 51.86816 4.72349 18251 ft 388 kts 205°
2026-05-05 14:59 51.84379 4.70446 18779 ft 391 kts 205°
2026-05-05 14:59 51.81922 4.68530 19222 ft 396 kts 205°
2026-05-05 14:59 51.79440 4.66595 19772 ft 396 kts 205°
2026-05-05 15:00 51.76976 4.64676 20332 ft 398 kts 204°
2026-05-05 15:00 51.75325 4.63393 20670 ft 400 kts 205°
2026-05-05 15:00 51.71935 4.60758 21227 ft 407 kts 205°
2026-05-05 15:00 51.69384 4.58775 21767 ft 408 kts 204°
2026-05-05 15:01 51.66824 4.56789 22322 ft 408 kts 205°
2026-05-05 15:01 51.64270 4.54813 22737 ft 412 kts 205°
2026-05-05 15:01 51.61688 4.52817 23150 ft 415 kts 205°
2026-05-05 15:01 51.59084 4.50806 23657 ft 415 kts 204°
2026-05-05 15:02 51.56470 4.48790 24041 ft 418 kts 205°
2026-05-05 15:02 51.53838 4.46762 24352 ft 421 kts 205°
2026-05-05 15:02 51.51193 4.44727 24781 ft 421 kts 205°
2026-05-05 15:02 51.48550 4.42696 25201 ft 422 kts 205°
2026-05-05 15:03 51.45899 4.40661 25597 ft 423 kts 205°
2026-05-05 15:03 51.43240 4.38623 25969 ft 425 kts 205°
2026-05-05 15:03 51.40571 4.36581 26317 ft 427 kts 205°
2026-05-05 15:03 51.37877 4.34548 26667 ft 428 kts 204°
2026-05-05 15:04 51.35172 4.32533 27010 ft 430 kts 204°
2026-05-05 15:04 51.32450 4.30509 27373 ft 431 kts 204°
2026-05-05 15:04 51.29728 4.28469 27695 ft 433 kts 204°
2026-05-05 15:04 51.27004 4.26392 28012 ft 435 kts 204°
2026-05-05 15:05 51.21460 4.22410 28457 ft 440 kts 194°
2026-05-05 15:05 51.18428 4.21893 28747 ft 440 kts 176°
2026-05-05 15:05 51.15467 4.22760 29139 ft 439 kts 162°
2026-05-05 15:06 51.12676 4.24710 29582 ft 439 kts 149°
2026-05-05 15:06 51.10254 4.27770 30015 ft 439 kts 138°
2026-05-05 15:06 51.08059 4.31137 30375 ft 438 kts 137°
2026-05-05 15:06 51.05925 4.34505 30687 ft 438 kts 137°
2026-05-05 15:07 51.03747 4.37959 30987 ft 437 kts 137°
2026-05-05 15:07 51.01624 4.41307 31338 ft 435 kts 137°
2026-05-05 15:07 50.99469 4.44674 31693 ft 433 kts 138°
2026-05-05 15:07 50.97319 4.48008 32023 ft 432 kts 138°
2026-05-05 15:08 50.95167 4.51322 32342 ft 431 kts 138°
2026-05-05 15:08 50.93020 4.54615 32662 ft 429 kts 138°
2026-05-05 15:08 50.90874 4.57898 32995 ft 428 kts 138°
2026-05-05 15:08 50.88737 4.61161 33305 ft 427 kts 139°
2026-05-05 15:09 50.86597 4.64424 33608 ft 426 kts 139°
2026-05-05 15:09 50.84466 4.67669 33918 ft 424 kts 139°
2026-05-05 15:09 50.82339 4.70904 34090 ft 425 kts 139°
2026-05-05 15:09 50.80200 4.74151 34200 ft 428 kts 139°
2026-05-05 15:10 50.78049 4.77414 34374 ft 428 kts 139°
2026-05-05 15:10 50.75905 4.80662 34655 ft 426 kts 138°
2026-05-05 15:10 50.73773 4.83891 34887 ft 426 kts 138°
2026-05-05 15:11 50.69457 4.90407 34895 ft 431 kts 139°
2026-05-05 15:11 50.65143 4.96906 34860 ft 426 kts 139°
2026-05-05 15:12 50.60882 5.03311 34881 ft 421 kts 139°
2026-05-05 15:12 50.56649 5.09653 34886 ft 423 kts 139°
2026-05-05 15:13 50.52349 5.16074 34876 ft 430 kts 139°
2026-05-05 15:13 50.47986 5.22575 34866 ft 434 kts 139°
2026-05-05 15:14 50.43589 5.29112 34869 ft 435 kts 139°
2026-05-05 15:14 50.39244 5.35558 34856 ft 426 kts 139°
2026-05-05 15:15 50.34936 5.41929 34866 ft 426 kts 139°
2026-05-05 15:15 50.30647 5.48252 34861 ft 426 kts 139°
2026-05-05 15:16 50.26326 5.54607 34852 ft 426 kts 139°
2026-05-05 15:16 50.22007 5.60943 34846 ft 426 kts 139°
2026-05-05 15:17 50.17693 5.67256 34840 ft 425 kts 139°
2026-05-05 15:17 50.13381 5.73549 34863 ft 424 kts 139°
2026-05-05 15:18 50.09044 5.79864 34849 ft 429 kts 139°
2026-05-05 15:18 50.04673 5.86206 34813 ft 429 kts 139°
2026-05-05 15:19 50.00331 5.92496 34823 ft 425 kts 139°
2026-05-05 15:19 49.96026 5.98718 34822 ft 421 kts 139°
2026-05-05 15:20 49.91751 6.04880 34831 ft 417 kts 139°
2026-05-05 15:20 49.87484 6.10942 34827 ft 414 kts 143°
2026-05-05 15:21 49.82584 6.15487 34831 ft 411 kts 158°
2026-05-05 15:21 49.77298 6.18944 34833 ft 416 kts 158°
2026-05-05 15:22 49.71927 6.22476 34849 ft 423 kts 157°
2026-05-05 15:22 49.66498 6.26080 34827 ft 426 kts 157°
2026-05-05 15:23 49.61057 6.29698 34827 ft 426 kts 157°
2026-05-05 15:23 49.55698 6.33251 34820 ft 418 kts 157°
2026-05-05 15:24 49.50341 6.36795 34832 ft 420 kts 157°
2026-05-05 15:24 49.44956 6.40360 34837 ft 422 kts 156°
2026-05-05 15:25 49.39568 6.44017 34842 ft 425 kts 156°
2026-05-05 15:25 49.34157 6.47701 34844 ft 426 kts 156°
2026-05-05 15:26 49.28729 6.51379 34833 ft 427 kts 156°
2026-05-05 15:26 49.23289 6.55050 34839 ft 427 kts 156°
2026-05-05 15:27 49.17856 6.58706 34839 ft 426 kts 156°
2026-05-05 15:27 49.12429 6.62351 34832 ft 426 kts 156°
2026-05-05 15:28 49.07048 6.65957 34830 ft 425 kts 156°
2026-05-05 15:28 49.01638 6.69547 34829 ft 424 kts 159°
2026-05-05 15:29 48.95896 6.71488 34836 ft 423 kts 175°
2026-05-05 15:29 48.89981 6.71352 34842 ft 428 kts 181°
2026-05-05 15:30 48.83990 6.71034 34823 ft 432 kts 181°
2026-05-05 15:30 48.78000 6.70770 34822 ft 428 kts 181°
2026-05-05 15:31 48.72106 6.70547 34818 ft 420 kts 181°
2026-05-05 15:31 48.66252 6.70323 34834 ft 424 kts 181°
2026-05-05 15:32 48.60304 6.70093 34830 ft 430 kts 181°
2026-05-05 15:32 48.54308 6.69859 34838 ft 432 kts 180°
2026-05-05 15:33 48.48278 6.69625 34813 ft 434 kts 181°
2026-05-05 15:33 48.42342 6.69394 34815 ft 425 kts 181°
2026-05-05 15:34 48.36435 6.69168 34829 ft 425 kts 181°
2026-05-05 15:34 48.30521 6.68947 34829 ft 425 kts 181°
2026-05-05 15:35 48.24600 6.68725 34833 ft 426 kts 181°
2026-05-05 15:35 48.18665 6.68503 34839 ft 427 kts 181°
2026-05-05 15:36 48.12680 6.68280 34842 ft 429 kts 181°
2026-05-05 15:36 48.06750 6.68060 34839 ft 429 kts 181°
2026-05-05 15:37 48.00780 6.67838 34844 ft 429 kts 181°
2026-05-05 15:37 47.94809 6.67617 34842 ft 429 kts 181°
2026-05-05 15:38 47.88822 6.67394 34846 ft 432 kts 181°
2026-05-05 15:38 47.82814 6.67174 34853 ft 432 kts 181°
2026-05-05 15:39 47.76810 6.66954 34857 ft 431 kts 182°
2026-05-05 15:39 47.70831 6.66735 34857 ft 429 kts 182°
2026-05-05 15:40 47.64870 6.66516 34854 ft 428 kts 182°
2026-05-05 15:40 47.58933 6.66298 34859 ft 426 kts 183°
2026-05-05 15:41 47.54006 6.66119 34855 ft 426 kts 183°
2026-05-05 15:41 47.48093 6.65905 34856 ft 425 kts 183°
2026-05-05 15:42 47.42202 6.65395 34850 ft 423 kts 194°
2026-05-05 15:42 47.36836 6.62031 34858 ft 421 kts 214°
2026-05-05 15:43 47.32358 6.56536 34869 ft 421 kts 220°
2026-05-05 15:43 47.27938 6.50881 34873 ft 421 kts 220°
2026-05-05 15:44 47.23485 6.45274 34868 ft 422 kts 220°
2026-05-05 15:44 47.19010 6.39690 34885 ft 422 kts 220°
2026-05-05 15:45 47.14525 6.34107 34876 ft 422 kts 220°
2026-05-05 15:45 47.10052 6.28556 34874 ft 421 kts 219°
2026-05-05 15:45 47.07641 6.26149 34874 ft 420 kts 208°
2026-05-05 15:46 47.04959 6.24437 34881 ft 421 kts 200°
2026-05-05 15:46 46.99224 6.22808 34891 ft 422 kts 188°
2026-05-05 15:47 46.93371 6.22097 34883 ft 421 kts 187°
2026-05-05 15:47 46.87540 6.21380 34882 ft 421 kts 187°
2026-05-05 15:48 46.81711 6.20623 34888 ft 420 kts 188°
2026-05-05 15:48 46.75894 6.19851 34890 ft 419 kts 188°
2026-05-05 15:49 46.70092 6.19079 34890 ft 419 kts 188°
2026-05-05 15:49 46.64328 6.18315 34890 ft 419 kts 188°
2026-05-05 15:50 46.58528 6.17548 34896 ft 418 kts 188°
2026-05-05 15:50 46.52725 6.16783 34893 ft 419 kts 188°
2026-05-05 15:51 46.46925 6.16019 34898 ft 419 kts 188°
2026-05-05 15:51 46.41123 6.15258 34898 ft 419 kts 188°
2026-05-05 15:52 46.35319 6.14496 34886 ft 419 kts 189°
2026-05-05 15:52 46.29516 6.13745 34886 ft 420 kts 187°
2026-05-05 15:53 46.23655 6.14494 34889 ft 429 kts 172°
2026-05-05 15:53 46.17981 6.17398 34888 ft 435 kts 163°
2026-05-05 15:54 46.12387 6.20749 34891 ft 435 kts 163°
2026-05-05 15:54 46.06784 6.24058 34890 ft 435 kts 163°
2026-05-05 15:55 46.01177 6.27323 34887 ft 434 kts 163°
2026-05-05 15:55 45.95611 6.30548 34885 ft 435 kts 164°
2026-05-05 15:56 45.90006 6.33786 34885 ft 433 kts 165°
2026-05-05 15:56 45.84414 6.37017 34890 ft 432 kts 165°
2026-05-05 15:57 45.78973 6.40792 34887 ft 444 kts 153°
2026-05-05 15:57 45.73947 6.45967 34899 ft 445 kts 152°
2026-05-05 15:58 45.68927 6.51161 34919 ft 445 kts 152°
2026-05-05 15:58 45.63889 6.56303 34903 ft 444 kts 152°
2026-05-05 15:59 45.58862 6.61398 34913 ft 442 kts 152°
2026-05-05 15:59 45.53857 6.66453 34885 ft 439 kts 153°
2026-05-05 16:00 45.48877 6.71473 34920 ft 437 kts 153°
2026-05-05 16:00 45.43902 6.76476 34903 ft 437 kts 153°
2026-05-05 16:01 45.38943 6.81453 34948 ft 437 kts 153°
2026-05-05 16:01 45.34000 6.86406 34927 ft 439 kts 153°
2026-05-05 16:02 45.28975 6.91333 34937 ft 436 kts 159°
2026-05-05 16:02 45.23468 6.94402 34956 ft 420 kts 175°
2026-05-05 16:03 45.17759 6.95452 34947 ft 411 kts 180°
2026-05-05 16:03 45.12054 6.96278 34958 ft 414 kts 180°
2026-05-05 16:04 45.06639 6.97098 34971 ft 417 kts 180°
2026-05-05 16:04 45.00853 6.97998 34961 ft 420 kts 180°
2026-05-05 16:04 44.97943 6.98452 34739 ft 426 kts 180°
2026-05-05 16:05 44.94981 6.98912 34195 ft 427 kts 181°
2026-05-05 16:05 44.92038 6.99375 33509 ft 425 kts 181°
2026-05-05 16:05 44.89121 6.99834 33085 ft 417 kts 181°
2026-05-05 16:05 44.86251 7.00286 32611 ft 413 kts 181°
2026-05-05 16:06 44.83413 7.00726 32144 ft 408 kts 181°
2026-05-05 16:06 44.80616 7.01199 31763 ft 403 kts 180°
2026-05-05 16:06 44.77849 7.01662 31285 ft 398 kts 179°
2026-05-05 16:06 44.75163 7.02261 30917 ft 394 kts 178°
2026-05-05 16:07 44.72474 7.02931 30474 ft 391 kts 178°
2026-05-05 16:07 44.69815 7.03608 30040 ft 388 kts 177°
2026-05-05 16:07 44.67178 7.04273 29641 ft 382 kts 178°
2026-05-05 16:07 44.64567 7.04919 29126 ft 379 kts 178°
2026-05-05 16:08 44.61986 7.05550 28714 ft 375 kts 178°
2026-05-05 16:08 44.59414 7.06164 28279 ft 376 kts 178°
2026-05-05 16:08 44.56823 7.06775 27872 ft 378 kts 178°
2026-05-05 16:08 44.54232 7.07387 27434 ft 376 kts 178°
2026-05-05 16:09 44.51675 7.07991 27005 ft 372 kts 177°
2026-05-05 16:09 44.49141 7.08594 26571 ft 368 kts 178°
2026-05-05 16:09 44.46618 7.09192 26158 ft 366 kts 178°
2026-05-05 16:09 44.44117 7.09782 25782 ft 364 kts 177°
2026-05-05 16:10 44.41623 7.10370 25321 ft 362 kts 177°
2026-05-05 16:10 44.39154 7.10950 24939 ft 360 kts 178°
2026-05-05 16:10 44.36673 7.11534 24539 ft 363 kts 177°
2026-05-05 16:10 44.34182 7.12124 24121 ft 362 kts 177°
2026-05-05 16:11 44.31709 7.12705 23715 ft 360 kts 177°
2026-05-05 16:11 44.24380 7.14427 22402 ft 352 kts 176°
2026-05-05 16:12 44.21971 7.14998 21957 ft 350 kts 175°
2026-05-05 16:12 44.17400 7.17279 21512 ft 348 kts 163°
2026-05-05 16:13 44.10670 7.21386 20842 ft 353 kts 163°
2026-05-05 16:13 44.08411 7.22737 20607 ft 353 kts 164°
2026-05-05 16:13 44.06155 7.24073 20407 ft 353 kts 164°
2026-05-05 16:14 44.01612 7.26737 19937 ft 354 kts 164°
2026-05-05 16:14 43.97117 7.29366 19458 ft 346 kts 163°
2026-05-05 16:15 43.92715 7.31933 19026 ft 342 kts 163°
2026-05-05 16:15 43.88359 7.34470 18629 ft 339 kts 163°
2026-05-05 16:16 43.83995 7.37006 18160 ft 342 kts 162°
2026-05-05 16:16 43.80061 7.40843 17685 ft 352 kts 146°
2026-05-05 16:17 43.76294 7.45172 17241 ft 352 kts 146°
2026-05-05 16:17 43.74401 7.47311 16968 ft 350 kts 147°
2026-05-05 16:18 43.70651 7.51504 16540 ft 344 kts 147°
2026-05-05 16:18 43.68823 7.53591 16314 ft 344 kts 141°
2026-05-05 16:18 43.66524 7.59524 15877 ft 357 kts 115°
2026-05-05 16:19 43.65711 7.62768 15642 ft 358 kts 114°
2026-05-05 16:19 43.64915 7.66018 15418 ft 358 kts 114°
2026-05-05 16:19 43.63296 7.72524 14964 ft 359 kts 114°
2026-05-05 16:20 43.61638 7.79019 14502 ft 359 kts 114°
2026-05-05 16:20 43.59982 7.85443 14010 ft 353 kts 114°
2026-05-05 16:21 43.58328 7.91822 13534 ft 353 kts 114°
2026-05-05 16:22 43.55843 8.01294 12803 ft 348 kts 118°
2026-05-05 16:22 43.52597 8.05614 12397 ft 319 kts 164°
2026-05-05 16:23 43.48374 8.05925 12004 ft 301 kts 198°
2026-05-05 16:23 43.46447 8.04889 11798 ft 296 kts 213°
2026-05-05 16:23 43.43282 8.01337 11427 ft 294 kts 223°
2026-05-05 16:24 43.41756 7.99456 11238 ft 294 kts 223°
2026-05-05 16:24 43.40223 7.97579 11045 ft 295 kts 224°
2026-05-05 16:24 43.38547 7.92602 10663 ft 293 kts 265°
2026-05-05 16:25 43.38713 7.89842 10469 ft 290 kts 282°
2026-05-05 16:25 43.40485 7.84957 10112 ft 281 kts 296°
2026-05-05 16:25 43.41453 7.82656 9920 ft 275 kts 296°
2026-05-05 16:26 43.42307 7.77811 9560 ft 256 kts 272°
2026-05-05 16:26 43.42581 7.72973 9236 ft 254 kts 272°
2026-05-05 16:27 43.42720 7.70547 9072 ft 255 kts 272°
2026-05-05 16:27 43.42862 7.68119 8908 ft 255 kts 272°
2026-05-05 16:27 43.43003 7.65710 8745 ft 256 kts 272°
2026-05-05 16:27 43.43147 7.63262 8578 ft 257 kts 272°
2026-05-05 16:28 43.43293 7.60806 8419 ft 258 kts 272°
2026-05-05 16:28 43.43439 7.58342 8259 ft 259 kts 272°
2026-05-05 16:28 43.43585 7.55867 8089 ft 260 kts 272°
2026-05-05 16:28 43.43732 7.53381 7915 ft 261 kts 272°
2026-05-05 16:29 43.43831 7.51699 7797 ft 261 kts 272°
2026-05-05 16:29 43.44025 7.48402 7571 ft 261 kts 272°
2026-05-05 16:29 43.44124 7.46720 7458 ft 260 kts 272°
2026-05-05 16:29 43.44269 7.44257 7283 ft 257 kts 272°
2026-05-05 16:30 43.44411 7.41825 7118 ft 253 kts 272°
2026-05-05 16:30 43.44551 7.39416 6960 ft 252 kts 272°
2026-05-05 16:30 43.44689 7.37042 6802 ft 252 kts 272°
2026-05-05 16:30 43.44827 7.34637 6643 ft 252 kts 272°
2026-05-05 16:31 43.44967 7.32200 6477 ft 252 kts 272°
2026-05-05 16:31 43.45103 7.29828 6317 ft 252 kts 272°
2026-05-05 16:31 43.45241 7.27423 6134 ft 252 kts 272°
2026-05-05 16:31 43.45377 7.25016 5975 ft 252 kts 272°
2026-05-05 16:32 43.45514 7.22607 5806 ft 253 kts 272°
2026-05-05 16:32 43.45650 7.20197 5639 ft 252 kts 272°
2026-05-05 16:32 43.45786 7.17789 5500 ft 252 kts 272°
2026-05-05 16:32 43.45919 7.15422 5360 ft 241 kts 272°
2026-05-05 16:33 43.46044 7.13213 5254 ft 222 kts 272°
2026-05-05 16:33 43.46159 7.11166 5111 ft 206 kts 272°
2026-05-05 16:33 43.46265 7.09271 4928 ft 193 kts 271°
2026-05-05 16:33 43.46366 7.07448 4670 ft 188 kts 271°
2026-05-05 16:34 43.46462 7.05687 4417 ft 182 kts 271°
2026-05-05 16:34 43.46556 7.03968 4160 ft 179 kts 271°
2026-05-05 16:34 43.46648 7.02300 4166 ft 173 kts 271°
2026-05-05 16:34 43.46946 7.00658 4171 ft 185 kts 301°
2026-05-05 16:35 43.47936 6.99514 4191 ft 192 kts 336°
2026-05-05 16:35 43.49258 6.99346 4188 ft 195 kts 12°
2026-05-05 16:35 43.50455 7.00254 4042 ft 202 kts 39°
2026-05-05 16:35 43.51496 7.01559 3746 ft 200 kts 45°
2026-05-05 16:36 43.52459 7.02884 3476 ft 192 kts 45°
2026-05-05 16:36 43.53379 7.04161 3218 ft 185 kts 46°
2026-05-05 16:36 43.54290 7.05423 2997 ft 186 kts 46°
2026-05-05 16:36 43.55208 7.06693 2761 ft 188 kts 46°
2026-05-05 16:37 43.56116 7.07944 2516 ft 180 kts 45°
2026-05-05 16:37 43.56987 7.09144 2274 ft 174 kts 46°
2026-05-05 16:37 43.57838 7.10316 2046 ft 171 kts 45°
2026-05-05 16:37 43.58677 7.11469 1814 ft 171 kts 45°
2026-05-05 16:38 43.59520 7.12627 1652 ft 169 kts 45°
2026-05-05 16:38 43.60337 7.13749 1420 ft 164 kts 46°
2026-05-05 16:38 43.61140 7.14849 1212 ft 158 kts 47°
2026-05-05 16:38 43.61887 7.15874 1001 ft 147 kts 47°
2026-05-05 16:39 43.62619 7.16876 789 ft 150 kts 46°
2026-05-05 16:39 43.63347 7.17890 565 ft 148 kts 46°
2026-05-05 16:39 43.64081 7.18881 383 ft 146 kts 46°
2026-05-05 16:39 43.64800 7.19871 196 ft 146 kts 49°
2026-05-05 16:40 43.65515 7.20862 23 ft 141 kts 47°
2026-05-05 16:40 43.66082 7.21651 20 ft 85 kts 43°
2026-05-05 16:40 43.66348 7.22014 23 ft 23 kts 46°
2026-05-05 16:40 43.66389 7.22075 22 ft 11 kts 46°
2026-05-05 16:41 43.66473 7.22126 23 ft 13 kts 343°
2026-05-05 16:41 43.66523 7.22074 21 ft 6 kts 319°
2026-05-05 16:41 43.66549 7.22041 21 ft 0 kts 314°
2026-05-05 16:41 43.66549 7.22040 21 ft 1 kts 314°
2026-05-05 16:42 43.66560 7.22024 21 ft 4 kts 313°
2026-05-05 16:42 43.66567 7.21998 21 ft 2 kts 246°
2026-05-05 16:42 43.66558 7.21970 23 ft 4 kts 270°
2026-05-05 16:42 43.66582 7.21951 21 ft 5 kts 347°
2026-05-05 16:43 43.66628 7.21920 21 ft 9 kts 320°
2026-05-05 16:43 43.66625 7.21829 21 ft 11 kts 228°
2026-05-05 16:43 43.66570 7.21753 21 ft 11 kts 225°
2026-05-05 16:43 43.66514 7.21677 21 ft 12 kts 225°
2026-05-05 16:44 43.66449 7.21588 21 ft 14 kts 224°
2026-05-05 16:44 43.66381 7.21494 21 ft 14 kts 226°
2026-05-05 16:44 43.66347 7.21385 21 ft 10 kts 259°
2026-05-05 16:44 43.66335 7.21289 21 ft 10 kts 262°
2026-05-05 16:45 43.66329 7.21195 21 ft 9 kts 278°
2026-05-05 16:45 43.66357 7.21185 21 ft 5 kts 11°
2026-05-05 16:45 43.66397 7.21208 22 ft 5 kts 32°
2026-05-05 16:45 43.66405 7.21216 22 ft 1 kts 36°
2026-05-05 16:46 43.66417 7.21223 21 ft 0 kts 17°
2026-05-05 16:46 43.66413 7.21221 22 ft 0 kts 17°